Hourly Data Report for September 03, 2017

All times are specified in Local Standard Time (LST). Add 1 hour to adjust for Daylight Saving Time where and when it is observed.

PORT ALBERNI (AUT)
BRITISH COLUMBIA

49°18'59.700" N
124°55'36.600" W
76.20 m
1036B06
71475
WQC

Download Data

Hourly Data (September 2017)
Hourly Data Report for September 3, 2017
Temp Definition
°C
Dew Point Temp Definition
°C
Rel Hum Definition
%
Wind Dir Definition
10's deg

Wind Spd Definition
km/h
Visibility Definition
km
Stn Press Definition
kPa
Hmdx Definition


Wind Chill Definition


Weather Definition


TIME
00:00 16.2 14.7 91 30 2   100.68     LegendNANA
01:00 15.1 14.0 94 33 3   100.72     LegendNANA
02:00 14.4 13.6 95 34 3   100.72     LegendNANA
03:00 13.4 12.4 93 32 14   100.74     LegendNANA
04:00 12.9 12.2 96 31 2   100.74     LegendNANA
05:00 12.7 12.2 97 32 4   100.75     LegendNANA
06:00 12.9 12.4 97 30 3   100.81     LegendNANA
07:00 15.5 14.0 91 33 4   100.84     LegendNANA
08:00 19.7 15.2 75 2 2   100.86     LegendNANA
09:00 22.2 15.0 64 7 2   100.85 26   LegendNANA
10:00 24.9 14.8 54 30 3   100.86 29   LegendNANA
11:00 28.0 15.1 45 30 4   100.84 32   LegendNANA
12:00 30.7 12.6 33 12 8   100.79 33   LegendNANA
13:00 32.1 8.4 23 12 8   100.75 33   LegendNANA
14:00 34.4 9.1 21 19 9   100.72 35   LegendNANA
15:00 34.6 10.7 23 14 9   100.70 36   LegendNANA
16:00 34.6 9.2 21 12 10   100.68 36   LegendNANA
17:00 33.9 10.6 24 15 11   100.66 35   LegendNANA
18:00 31.0 10.9 29 21 7   100.67 33   LegendNANA
19:00 26.4 12.5 42 29 6   100.74 29   LegendNANA
20:00 21.6 13.0 58 30 2   100.81     LegendNANA
21:00 19.3 13.3 68 30 1   100.87     LegendNANA
22:00 17.3 12.9 76 31 2   100.92     LegendNANA
23:00 16.0 12.5 79 32 4   100.94     LegendNANA

Notes on Data Quality.

Legend

  • E = Estimated
  • M = Missing
  • NA = Not Available
  • ‡ = Partner data that is not subject to review by the National Climate Archives
Date modified: